FENGYUN 1C DEB, 30507

Orbit data source: Space-Track

FENGYUN 1C DEB, 30507 is space debris in SSO originally from a launch on Mon, 10 May 1999 UTC launched from the Taiyaun Space Center, China (TSC). Fengyun 1C debris stems from the Chinese weather satellite Fengyun-1C, which was intentionally destroyed by a Chinese anti-satellite missile in 2007. This event dramatically increased the amount of space debris, with thousands of trackable fragments posing hazards to satellites and human spaceflight. The Fengyun 1C debris cloud has become a focal point in discussions about space sustainability and the need for international regulations to prevent the creation of new debris.

Loading next visibility...
Identifier
30507, 1999-025AHV
Orbit
SSO
Country
Flag of CNCN / PRC
Related business
Manufacturer
Unknown
Mission
Spacecraft
Bus & Motor
Unknown
Mass
Unknown
Launch date (UTC)
1999-05-10 (27 years ago)
Launch vehicle
Unknown
Launch site
Taiyaun Space Center, China (TSC)
Object type
Payload
Rocket body
Debris
Shape & HBR
Unknown shape, 0.1 m
Radar Cross Section
Small (<0.1 m²)

Expand to show TLE details & history
Last TLE update: 2 days ago

TLE from 2 days ago
0 FENGYUN 1C DEB
1 30507U 99025AHV 26165.15463652  .00001222  00000-0  61897-3 0  9993
2 30507  98.9974 235.9000 0126372  18.6832  36.1379 14.13897808990894
Epoch: 2026-06-14T03:42Z
TLE epoch observation values (Epoch: 2026-06-14T03:42:40.595Z)
Latitude
54.76796°
Longitude
-95.11365°
Altitude
781.736 km
Speed
7.506 km/s
True Right ascension
14h 52m 03s
True Declination
54° 36' 23"
Sunlit
Object was in daylight at epoch
Visualization orbit readout
Latitude
Unknown
Longitude
Unknown
Altitude
Unknown
Speed
Unknown
Apparent Right ascension
Unknown
Apparent Declination
Unknown
Sunlit
N/A
Visualization observer readout
Local Sidereal Time
23:50:45
Azimuth
Unknown
Elevation
Unknown
Doppler factor
Unknown
Orbital elements
Apogee altitude
934.502 km
Perigee altitude
751.986 km
Semi-major axis
7,221.381 km
Eccentricity
0.01264
Inclination
98.9974°
RAAN
235.9°
Arg. of periapsis
18.6832°
True anomaly
37.0029°
Mean anomaly
36.1379°
Eccentric anomaly
36.56929°
Mean motion
3.53682 °/min
Orbital period
101.79 mins
BSTAR
0.00061897
Loading maneuver chart data...
Computing Atmospheric mass density...

Documentation

Showing up to 5 results
|